Regional Weather Roundup
Issued by NWS Albany, NY

Home | Current Version | Previous Version | Text Only | Print | Product List | Glossary On
Versions: 1 2 3 4 5 6 7 8 9 10 11 12 13 14 15 16 17 18 19 20 21 22 23 24 25 26 27
000
ASUS41 KALY 271310
RWRALY

NEW YORK STATE HOURLY WEATHER ROUNDUP
NATIONAL WEATHER SERVICE ALBANY NY
900 AM EDT TUE SEP 27 2016

NOTE: "FAIR" INDICATES FEW OR NO CLOUDS BELOW 12,000 FEET WITH NO
SIGNIFICANT WEATHER AND/OR NO OBSTRUCTIONS TO VISIBILITY.

NYZ032-033-038>043-046>054-057>066-NYZ062>081-082-084-271400-
EAST


CITY           SKY/WX    TMP DP  RH WIND       PRES   REMARKS
ALBANY         FOG       58  57  97 CALM      29.92R VSB 1/4
GLENS FALLS    CLOUDY    58  55  90 SW5       29.91S
POUGHKEEPSIE   CLOUDY    61  60  97 CALM      29.91S
NEWBURGH       PTSUNNY   59  59 100 VRB6      29.93R
MONTGOMERY     PTSUNNY   61  60  97 CALM      29.93R
WHITE PLAINS   CLOUDY    64  62  93 CALM      29.92R
ISLIP          CLOUDY    66  64  93 SW6       29.92R
NEW YORK CITY  CLOUDY    67  61  81 NW10      29.92R
CENTRAL PARK   CLOUDY    64  61  90 VRB5      29.96R
$$

NYZ005>009-017-018-044>046-055-056-271400-
CENTRAL


CITY           SKY/WX    TMP DP  RH WIND       PRES   REMARKS
FULTON         PTSUNNY   59  54  83 S8        29.88S
SYRACUSE       MOSUNNY   61  52  72 SW7       29.89S
ROME           PTSUNNY   56  55  97 SE5       29.92S
ELMIRA         FOG       50  49  96 CALM      29.92F VSB 1/4
BINGHAMTON     SUNNY     55  52  89 SW7       29.93S
MONTICELLO     CLOUDY    55  55 100 CALM      29.96R
$$

NYZ026>034-041>043-087-271400-
NORTH


CITY           SKY/WX    TMP DP  RH WIND       PRES   REMARKS
WATERTOWN      SUNNY     60  53  77 S9        29.85F
FORT DRUM      NOT AVBL
OGDENSBURG     FAIR      57  56  97 S3        29.85S
MASSENA        PTSUNNY   58  53  84 S7        29.86S
SARANAC LAKE   PTSUNNY   51  49  92 SW3       29.88F
PLATTSBURGH    SUNNY     60  53  77 S5        29.88S
$$

NYZ001>004-010>016-019>021-085-271400-
WEST


CITY           SKY/WX    TMP DP  RH WIND       PRES   REMARKS
NIAGARA FALLS  LGT RAIN  56  50  80 S6        29.83F
BUFFALO        MOSUNNY   58  49  72 SE9       29.85F
DUNKIRK        SUNNY     57  47  69 S14       29.86F
JAMESTOWN      SUNNY     52  45  76 S13       29.90S
WELLSVILLE     SUNNY     53  48  83 SW8       29.95R
ROCHESTER      PTSUNNY   59  51  75 S9        29.87F
PENN YAN       SUNNY     58  49  72 SW12      29.90F
$$

             KEY
       WCI = WIND CHILL INDEX
       VSB = VISIBILITY
       HX  = HEAT INDEX
$$




USA.gov is the U.S. government's official web portal to all federal, state and local government web resources and services.